Location: Newark
(42.9260°N, 89.3850°W)
Time: 03:33:55
(UTC+00:00)

STARLINK 1041 - Pass Details

Date: 14 December 2019
Orbit: 549 x 551 km, 53.0° (Epoch: 19 January)

Event Time Altitude Azimuth Distance (km) Brightness Sun altitude
Exits shadow 11:17:32 23° 204° (SSW) 1,213 5.2 -21.7°
Drops below altitude 10° 11:20:00 10° 172° (S) 1,851 6.5 -21.2°
Sets 11:22:29 0° 159° (SSE) 2,743 7.7 -20.8°
